ASTRO-H (HITOMI)

Last updated on Sun Mar 15 2026 00:02:17 GMT+0000 (Coordinated Universal Time)

1 41337U 16012A 26073.39344529 .00003577 00000+0 20875-3 0 9991 2 41337 31.0006 326.1936 0009715 17.8304 342.2673 15.10040420552944
UTC large
Height (km)
Speed (km/s)
/
Latitude / Longitude
Inclination (degrees)
Orbital Period (minutes)
Azimuth
Elevation
Range (km)
Doppler Factor

Next 0 passes for location: London (51.5072 / 0.1276)

Sorry there are no passes over London.